Flag for U.S.A. Weather past 2 weeks in Columbia, South Carolina, U.S.A.

Now
76 °F

Clear.


Feels Like: 76 °F
Forecast: 74 / 95 °F
Wind: No wind

Location: Columbia Owens Downtown Airport

Current Time: Sep 1, 2014 at 4:13:22 AM

Latest Report: Sep 1, 2014 at 3:53 AM


Visibility: 10 mi

Pressure: 30.09 "Hg

Humidity: 88%

Dew point: 72 °F

Location of ColumbiaLocation

Historic Weather in Columbia — Graph

°F

Columbia temperature yesterday

Maximum temperature yesterday: 96 °F (at 2:53 PM)
Minimum temperature yesterday: 76 °F (at 2:53 AM)
Average temperature yesterday: 82 °F

Past Weeks' High & Low Weather Summary

 TemperatureHumidityPressure
High99 °F (Aug 22, 5:53 PM)91% (Aug 17, 4:53 AM)30.19 "Hg (Aug 17, 4:53 AM)
Low63 °F (Aug 28, 6:53 AM)22% (Aug 28, 4:53 PM)29.82 "Hg (Aug 18, 4:53 PM)
Average82 °F62%30.01 "Hg
* Reported Aug 17 2:53 AM — Sep 1 2:53 AM, Columbia, Weather by CustomWeather, © 2014

Note: Actual official high and low records may vary slightly from our data, if they occured in-between our weather recording intervals... More about our weather records

Advertising

Columbia weather history for previous 24 hours

 ConditionsComfort  
Time TempWeatherWind HumidityBarometerVisibility
2:53 AM
Sep 1
76 °FClear.No wind88%30.09 "Hg10 mi
1:53 AM76 °FClear.No wind91%30.09 "Hg10 mi
12:53 AM77 °FClear.No wind90%30.10 "Hg10 mi
11:53 PM
Aug 31
77 °FClear.No wind90%30.11 "Hg10 mi
10:53 PM77 °FClear.No wind90%30.10 "Hg9 mi
9:53 PM78 °FPassing clouds.No wind87%30.10 "Hg10 mi
8:53 PM79 °FLight rain. Clear.No wind84%30.11 "Hg10 mi
7:53 PM79 °FMostly cloudy.No wind88%30.11 "Hg10 mi
6:53 PM78 °FPartly sunny.No wind87%30.06 "Hg10 mi
5:53 PM77 °FLight rain. Fog.No wind88%30.07 "Hg6 mi
4:53 PM85 °FThunderstorms. Cloudy.7 mph68%30.03 "Hg10 mi
3:53 PM95 °FPassing clouds.6 mph41%30.04 "Hg10 mi
2:53 PM96 °FSunny.5 mph41%30.07 "Hg10 mi
1:53 PM95 °FPassing clouds.5 mph43%30.09 "Hg10 mi
12:53 PM92 °FSunny.3 mph49%30.12 "Hg10 mi
11:53 AM90 °FSunny.8 mph54%30.14 "Hg10 mi
10:53 AM86 °FSunny.5 mph63%30.15 "Hg10 mi
9:53 AM82 °FScattered clouds.3 mph77%30.16 "Hg10 mi
8:53 AM79 °FSunny.No wind84%30.16 "Hg10 mi
7:53 AM77 °FPartly cloudy.No wind85%30.17 "Hg10 mi
6:53 AM77 °FPassing clouds.No wind85%30.17 "Hg10 mi
5:53 AM76 °FMostly cloudy.No wind88%30.16 "Hg10 mi
4:53 AM76 °FMostly cloudy.No wind85%30.15 "Hg10 mi
Weather by CustomWeather, © 2014

See weather overviewHow to use our weather pages